Regional Weather Roundup
Issued by NWS

Home | Current Version | Previous Version | Graphics & Text | Print | Product List | Glossary Off
Versions: 1 2 3 4 5 6 7 8 9 10 11 12 13 14 15 16 17 18 19 20 21 22 23 24 25 26 27 28 29 30 31 32 33 34 35 36 37 38 39 40 41 42 43 44 45 46 47 48 49 50

000
ASUS43 KMPX 140410
RWRMN
WEATHER ROUNDUP FOR MINNESOTA
NATIONAL WEATHER SERVICE TWIN CITIES/CHANHASSEN MN
1000 PM CST SAT FEB 13 2016


NOTE: "FAIR" INDICATES FEW OR NO CLOUDS BELOW 12,000 FEET WITH NO
SIGNIFICANT WEATHER AND/OR OBSTRUCTIONS TO VISIBILITY. N/A MEANS
CURRENT SKY AND/OR WEATHER CONDITIONS ARE NOT AVAILABLE.

MNZ060>063-068>070-140500-
   Twin Cities Metro

CITY           SKY/WX    TMP DP  RH WIND       PRES   REMARKS
TWIN CITIES    MOCLDY     7  -7  52 SE10      30.35F WCI  -8
ST PAUL        CLOUDY     7  -5  57 SE9       30.37F WCI  -7
CRYSTAL        CLOUDY     9  -6  50 SE13      30.33F WCI  -7
BLAINE         CLOUDY    10  -4  52 SE9       30.33F WCI  -2
LAKEVILLE      CLOUDY     5  -4  66 SE7       30.33F WCI  -7
EDEN PRAIRIE   CLOUDY     8  -6  52 SE12      30.33F WCI  -7
SOUTH ST PAUL  CLOUDY     7  -7  52 SE7       30.36F WCI  -4
LAKE ELMO      FAIR       7  -8  51 SE5       30.36F WCI  -2
$$
MNZ001>005-007-008-013>017-022>024-027-028-140500-
   Northwest Minnesota

CITY           SKY/WX    TMP DP  RH WIND       PRES   REMARKS
BEMIDJI        CLOUDY     3  -9  55 SE10      30.16F WCI -12
HALLOCK        CLOUDY    12   1  62 S20       30.09F WCI  -6
ROSEAU         CLOUDY     9  -6  52 SE15      30.14F WCI  -8
WARROAD        MOCLDY     5  -9  51 SE12      30.16F WCI -11
THIEF RVR FALL CLOUDY    10  -2  56 SE15      30.12F WCI  -6
CROOKSTON      CLOUDY    12   1  62 S17G24    30.14F WCI  -5
FOSSTON        FLURRIES   9  -6  52 SE7       30.13F WCI  -3
DETROIT LAKES  CLOUDY    10   1  67 SE17      30.13F WCI  -7
MOORHEAD       CLOUDY    12   0  57 S24G31    30.13S WCI  -8
PARK RAPIDS    CLOUDY     8  -7  50 SE15      30.16F WCI  -9
MAHNOMEN       CLOUDY     9  -3  56 SE12G21   30.12S WCI  -6
$$
MNZ006-009>011-018-025>026-140500-
   North Central Minnesota

CITY           SKY/WX    TMP DP  RH WIND       PRES   REMARKS
BAUDETTE       CLOUDY     0 -16  46 SE10      30.18F WCI -16
FLAG ISLAND    CLOUDY     0 -15  50 SE9G18    30.18F WCI -16
INTL FALLS     CLOUDY    -9 -16  71 E7        30.24F WCI -24
WASKISH        CLOUDY     3  -9  55 SE7       30.19F WCI  -9
LONGVILLE      CLOUDY     1 -11  55 SE5       30.22F WCI  -8
GRAND RAPIDS   CLOUDY     0 -15  50 SE7       30.23F WCI -13
CRANE LAKE     CLOUDY   -17 -20  83 CALM      30.30F
ORR            CLOUDY    -2 -17  50 CALM      30.22F
COOK           CLOUDY   -15 -20  76 CALM      30.26F
WALKER         CLOUDY     4 -10  52 SE8G17    30.19F WCI -10
$$
MNZ012-019>021-037-140500-
   Northeast Minnesota

CITY           SKY/WX    TMP DP  RH WIND       PRES   REMARKS
DULUTH         CLOUDY    -2 -14  56 SE6       30.27F WCI -14
ELY            CLOUDY   -17 -20  83 CALM      30.27F
HIBBING        CLOUDY    -9 -17  68 SE3       30.26F
EVELETH        CLOUDY   -17 -24  70 NE3       30.27F
DULUTH HARBOR  CLOUDY     3  -9  55 S5        30.37F WCI  -6
TWO HARBORS    CLEAR     -8 -15  71 CALM      30.30F
SILVER BAY     CLOUDY    -9 -15  77 CALM      30.31F
GRAND MARAIS     N/A      3  -5  69 NW5       30.38F WCI  -6
G MARAIS ARPRT CLOUDY   -15 -20  76 CALM      30.26F
$$
MNZ029>031-032-039>041-046>048-054>057-064-140500-
   West Central Minnesota

CITY           SKY/WX    TMP DP  RH WIND       PRES   REMARKS
FERGUS FALLS   CLOUDY    10   0  61 S17       30.19F WCI  -7
WHEATON        CLOUDY    12   5  73 SE21G28   30.17S WCI  -6
MORRIS         CLOUDY    10   1  67 SE24      30.16S WCI -10
ALEXANDRIA     CLOUDY     8  -2  63 SE15      30.18F WCI  -9
ELBOW LAKE     CLOUDY    10   1  67 E17G24    30.16F WCI  -8
WADENA         CLOUDY     7  -4  61 SE14      30.17F WCI -10
GLENWOOD       CLOUDY     9   0  66 SE16      30.20S WCI  -9
APPLETON       CLOUDY    12   3  67 SE14G21   30.18S WCI  -3
BENSON         CLOUDY    10   1  67 S16       30.19F WCI  -7
ORTONVILLE     CLOUDY    10   3  72 SE16G25   30.15S WCI  -7
MADISON        CLOUDY    12   5  73 SE23      30.17S WCI  -7
WILLMAR        CLOUDY    10   3  72 SE21      30.23F WCI  -9
$$
MNZ033>034-036-042>043-049>051-058-059-140500-
   Central Minnesota

CITY           SKY/WX    TMP DP  RH WIND       PRES   REMARKS
ST CLOUD       CLOUDY     8  -4  58 SE14      30.28F WCI  -8
SAUK CENTRE    CLOUDY     8  -2  63 SE14      30.21F WCI  -8
PAYNESVILLE    CLOUDY    10  -1  63 SE15      30.24F WCI  -7
AITKIN         CLOUDY     3 -13  47 SE6       30.25F WCI  -8
PINE RIVER     CLOUDY     1  -9  60 SE7       30.24F WCI -11
BRAINERD       CLOUDY     2 -10  57 SE7       30.24F WCI -11
STAPLES        CLOUDY     7  -8  51 SE8       30.20F WCI  -6
LONG PRAIRIE   CLOUDY     9  -4  56 SE14      30.20F WCI  -8
LITTLE FALLS   CLOUDY    10  -6  48 SE12      30.25F WCI  -4
LITCHFIELD     CLOUDY    10   1  67 SE10G16   30.26F WCI  -3
BUFFALO        CLOUDY     9  -7  49 SE9       30.31F WCI  -5
MAPLE LAKE     CLOUDY    10  -3  55 SE8       30.30F WCI  -2
$$
MNZ037-044-045-052-053-140500-
   East Central Minnesota

CITY           SKY/WX    TMP DP  RH WIND       PRES   REMARKS
PRINCETON      CLOUDY     9  -8  47 SE7       30.30F WCI  -3
MORA           CLOUDY     1  -9  60 CALM      30.33F
CAMBRIDGE      CLOUDY     9  -6  52 SE6       30.31F WCI  -1
RUSH CITY      CLOUDY     1 -12  56 SE3       30.34F
MOOSE LAKE     CLOUDY    -8 -17  65 CALM      30.31S
HINCKLEY       FAIR       1  -9  60 SE5       30.33F WCI  -8
CLOQUET        CLOUDY     0 -17  46 SE3       30.29F
MCGREGOR       CLOUDY     1  -9  60 SE7       30.28F WCI -11
$$
MNZ071>073-080-081-089-090-097-098-140500-
   Southwest Minnesota

CITY           SKY/WX    TMP DP  RH WIND       PRES   REMARKS
MONTEVIDEO     CLOUDY    10   3  72 S18       30.22R WCI  -8
GRANITE FALLS  CLOUDY    13   5  71 SE18G24   30.22F WCI  -5
CANBY          FLURRIES  14   9  81 E18G24    30.16S WCI  -3
MARSHALL       FLURRIES  10   4  76 S20G28    30.18F WCI  -9
REDWOOD FALLS  CLOUDY    10   3  73 SE18      30.23F WCI  -8
OLIVIA         CLOUDY    12   3  67 SE20      30.23F WCI  -6
PIPESTONE      LGT SNOW  10   3  72 S16       30.10S WCI  -7
WINDOM         CLOUDY     9   3  78 SE17      30.19F WCI -10
WORTHINGTON    CLOUDY     9   3  78 SE18      30.16F WCI -10
JACKSON        CLOUDY    10   5  79 SE16G22   30.21F WCI  -7
TRACY          CLOUDY    11   6  80 S18       30.18F WCI  -7
SLAYTON        LGT SNOW   8   7  92 SE20      30.14F WCI -11
$$
MNZ065>067-074>077-082>085-091>093-140500-
   South Central Minnesota

CITY           SKY/WX    TMP DP  RH WIND       PRES   REMARKS
MANKATO        CLOUDY     9   0  66 SE14      30.30F WCI  -8
NEW ULM        CLOUDY     9   0  66 SE15      30.26F WCI  -8
ST JAMES       CLOUDY    10   3  72 SE16      30.27F WCI  -7
FAIRMONT       CLOUDY    10   1  67 SE18      30.25F WCI  -8
GLENCOE        CLOUDY    10   0  63 SE9       30.29F WCI  -3
FARIBAULT      CLOUDY     7  -8  51 SE10      30.34S WCI  -8
OWATONNA       CLOUDY     7  -8  51 SE13      30.31F WCI  -9
WASECA         CLOUDY    10   0  61 SE14      30.32F WCI  -5
ALBERT LEA     CLOUDY     9  -2  61 SE12      30.30F WCI  -6
$$
MNZ078>079-086>088-094>096-140500-
   Southeast Minnesota

CITY           SKY/WX    TMP DP  RH WIND       PRES   REMARKS
ROCHESTER      CLOUDY     3  -7  63 SE9       30.33F WCI -12
RED WING       CLOUDY     5  -9  51 SE5       30.38F WCI  -4
STANTON        CLOUDY     8  -7  50 SE7       30.33F WCI  -3
DODGE CENTER   CLOUDY     5  -6  61 SE12      30.31F WCI -11
WINONA         CLOUDY     5  -6  61 SE3       30.43S
AUSTIN         CLOUDY     7  -2  66 S5        30.33F WCI  -2
PRESTON        CLOUDY     1 -10  58 SE5       30.35F WCI  -8
$$
ABBREVIATIONS USED IN REMARKS
   TC - TEMPERATURES IN CELSIUS
  WCI - WIND CHILL INDEX
   HX - HEAT INDEX
  VSB - VISIBILITY
$$



USA.gov is the U.S. government's official web portal to all federal, state and local government web resources and services.